Weather History for San Luis Obispo, CA

Change the Weather History Date:

Wednesday, February 19, 2014

  Actual Average Record
Temperature  
Mean Temperature 63 °F -  
Max Temperature 75 °F 65 °F 78 °F (1965)
Min Temperature 51 °F 44 °F 34 °F (1952)
Degree Days  
Heating Degree Days 2    
Growing Degree Days 13 (Base 50)    
Moisture  
Dew Point 44 °F    
Average Humidity 56    
Maximum Humidity 86    
Minimum Humidity 32    
Precipitation  
Precipitation 0.00 in - - ()
Sea Level Pressure  
Sea Level Pressure 30.06 in    
Wind  
Wind Speed 14 mph (NNW)    
Max Wind Speed 24 mph    
Max Gust Speed 34 mph    
Visibility 10 miles    
Events      
Averages and records for this station are not official NWS values.
T = Trace of Precipitation, MM = Missing Value Source: NWS Daily Summary

Daily Weather History Graph

Daily Weather History Graph

Search for Another Location

Airport:

Trip Planner

Search our weather history database for the weather conditions in past years. The results will help you decide how hot, cold, wet, or windy it might be!

Date:

Astronomy

Feb. 19, 2014 Rise Set
Actual Time 6:44 AM PST 5:48 PM PST
Civil Twilight 6:18 AM PST 6:14 PM PST
Nautical Twilight 5:48 AM PST 6:44 PM PST
Astronomical Twilight 5:19 AM PST 7:13 PM PST
Moon 10:34 PM PST (2/19) 9:04 AM PST (2/19)
Length of Visible Light 11h 56m
Length of Day
11h 04m
Waning Gibbous, 79% of the Moon is Illuminated
Feb 19
Waning Gibbous
Feb 22
Last Quarter
Mar 1
New
Mar 8
First Quarter
Mar 16
Full

Hourly Weather History & Observations

Time (PST) Temp. Dew Point Humidity Pressure Visibility Wind Dir Wind Speed Gust Speed Precip Events Conditions
12:56 AM 61.0 °F 34.0 °F 36% 30.02 in 10.0 mi NNW 12.7 mph 19.6 mph N/A   Clear
1:56 AM 61.0 °F 34.0 °F 36% 30.02 in 10.0 mi North - - N/A   Clear
2:56 AM 55.9 °F 45.0 °F 67% 30.03 in 10.0 mi NW 24.2 mph 29.9 mph N/A   Clear
3:56 AM 54.0 °F 46.0 °F 75% 30.06 in 10.0 mi North 10.4 mph 34.5 mph N/A   Clear
4:56 AM 57.9 °F 39.9 °F 51% 30.06 in 10.0 mi North 12.7 mph 24.2 mph N/A   Clear
5:56 AM 55.9 °F 42.1 °F 60% 30.06 in 10.0 mi North 17.3 mph 29.9 mph N/A   Clear
6:56 AM 57.9 °F 39.0 °F 49% 30.06 in 10.0 mi NW 9.2 mph 19.6 mph N/A   Clear
7:56 AM 61.0 °F 39.0 °F 44% 30.08 in 10.0 mi North 10.4 mph - N/A   Clear
8:56 AM 63.0 °F 41.0 °F 45% 30.09 in 10.0 mi NNW 16.1 mph - N/A   Clear
9:56 AM 64.0 °F 42.1 °F 45% 30.11 in 10.0 mi North 15.0 mph 20.7 mph N/A   Clear
10:56 AM 68.0 °F 43.0 °F 40% 30.09 in 10.0 mi North 6.9 mph - N/A   Clear
11:56 AM 72.0 °F 41.0 °F 33% 30.06 in 10.0 mi NNE 12.7 mph 17.3 mph N/A   Clear
12:56 PM 75.0 °F 43.0 °F 32% 30.02 in 10.0 mi NE 10.4 mph 19.6 mph N/A   Clear
1:10 PM 71.6 °F 46.4 °F 41% 30.03 in 10.0 mi WNW 20.7 mph 25.3 mph N/A   Clear
1:24 PM 69.8 °F 48.2 °F 46% 30.03 in 10.0 mi NW 20.7 mph 27.6 mph N/A   Clear
1:56 PM 66.9 °F 48.0 °F 51% 30.02 in 10.0 mi NW 23.0 mph - N/A   Clear
2:56 PM 64.0 °F 48.9 °F 58% 30.04 in 10.0 mi NNW 17.3 mph 28.8 mph N/A   Clear
3:56 PM 63.0 °F 46.9 °F 56% 30.04 in 10.0 mi NNW 20.7 mph - N/A   Clear
4:56 PM 59.0 °F 46.9 °F 64% 30.05 in 10.0 mi NW 16.1 mph 24.2 mph N/A   Clear
5:56 PM 55.0 °F 46.9 °F 74% 30.05 in 10.0 mi NW 13.8 mph - N/A   Clear
6:56 PM 54.0 °F 46.9 °F 77% 30.08 in 10.0 mi NW 16.1 mph - N/A   Clear
7:56 PM 53.1 °F 46.9 °F 80% 30.08 in 10.0 mi NW 10.4 mph - N/A   Clear
8:56 PM 51.1 °F 46.9 °F 86% 30.10 in 9.0 mi NW 9.2 mph - N/A   Clear
9:56 PM 52.0 °F 46.9 °F 83% 30.10 in 10.0 mi Calm Calm - N/A   Clear
10:56 PM 59.0 °F 44.1 °F 58% 30.10 in 10.0 mi North - - N/A   Clear
11:56 PM 57.9 °F 43.0 °F 58% 30.10 in 10.0 mi North 10.4 mph - N/A   Clear